WESTFORD NEEDLES, 2381

Orbit data source: Space-Track

WESTFORD NEEDLES, 2381 is space debris in LEO originally from a launch on Thu, 09 May 1963 UTC launched from the Air Force Western Test Range (AFWTR). Debris objects in space refer to the collection of defunct objects orbiting the Earth. Examples of debris include non-operational satellites, rocket bodies, and fragments generated from explosions, collisions, or faulty payload assembly.

Loading next visibility...
Identifier
2381, 1963-014AB
Orbit
LEO
Country
Flag of USUS
Related business
Manufacturer
Unknown
Mission
Spacecraft
Bus & Motor
Unknown
Mass
Unknown
Launch date (UTC)
1963-05-09 (63 years ago)
Launch vehicle
Unknown
Launch site
Air Force Western Test Range (AFWTR)
Object type
Payload
Rocket body
Debris
Shape & HBR
Unknown shape, 0.3 m
Radar Cross Section
Medium (>0.1 m² and <1 m²)

Expand to show TLE details & history
Last TLE update: 3 days ago

TLE from 3 days ago
0 WESTFORD NEEDLES
1 02381U 63014AB  26124.89976700 -.00000151  00000-0 -68916-1 0  9999
2 02381  87.2883 101.6795 0211163 266.5527  91.1155  8.67427048387510
Epoch: 2026-05-04T21:35Z
TLE epoch observation values (Epoch: 2026-05-04T21:35:39.868Z)
Latitude
-0.00009°
Longitude
-85.01896°
Altitude
3,638.302 km
Speed
6.306 km/s
True Right ascension
06h 46m 43s
True Declination
0° 00' 00"
Sunlit
Object was in daylight at epoch
Visualization orbit readout
Latitude
Unknown
Longitude
Unknown
Altitude
Unknown
Speed
Unknown
Apparent Right ascension
Unknown
Apparent Declination
Unknown
Sunlit
N/A
Visualization observer readout
Local Sidereal Time
02:42:32
Azimuth
Unknown
Elevation
Unknown
Doppler factor
Unknown
Orbital elements
Apogee altitude
3,836.597 km
Perigee altitude
3,414.123 km
Semi-major axis
10,003.497 km
Eccentricity
0.02112
Inclination
87.2883°
RAAN
101.6795°
Arg. of periapsis
266.5527°
True anomaly
93.53283°
Mean anomaly
91.1155°
Eccentric anomaly
92.32438°
Mean motion
2.16928 °/min
Orbital period
165.95 mins
BSTAR
-0.068916

Documentation

Showing up to 5 results
|